When you browse on this site, cookies collect data to enhance your experience and personalize the content and advertising you see.
Visit our Privacy Policy to learn more. By continuing to use the site, you agree to this use of cookies and data.
  • In Hungary
  • List of Countries
  • For 7 days
  • Water Temperature
  • Satellite Maps
  • Weather Map
  • News
  • Weather Widgets
  • user-avatar
    Login

    Hourly Weather Duesseldorf

    Today, 20 April, Saturday

    Time Temperature Precipitation Wind Pressure Humidity
    00:00 +17°C° 0 mm 2 mps 768 mmHg 60%
    01:00 +16°C° 0 mm 2 mps 768 mmHg 62%
    02:00 +15°C° 0 mm 1 mps 768 mmHg 63%
    03:00 +15°C° 0 mm 1 mps 768 mmHg 65%
    04:00 +15°C° 0 mm 1 mps 768 mmHg 64%
    05:00 +15°C° 0 mm 1 mps 768 mmHg 63%
    06:00 +15°C° 0 mm 1 mps 769 mmHg 57%
    07:00 +18°C° 0 mm 1 mps 769 mmHg 51%
    08:00 +20°C° 0 mm 1 mps 768 mmHg 46%
    09:00 +22°C° 0 mm 1 mps 768 mmHg 40%
    10:00 +24°C° 0 mm 2 mps 768 mmHg 36%
    11:00 +25°C° 0 mm 2 mps 768 mmHg 32%
    12:00 +26°C° 0 mm 2 mps 768 mmHg 28%
    13:00 +26°C° 0 mm 2 mps 768 mmHg 29%
    14:00 +26°C° 0 mm 3 mps 767 mmHg 29%
    15:00 +26°C° 0 mm 3 mps 767 mmHg 30%
    16:00 +25°C° 0 mm 3 mps 767 mmHg 34%
    17:00 +23°C° 0 mm 4 mps 767 mmHg 39%
    18:00 +21°C° 0 mm 4 mps 766 mmHg 44%
    19:00 +20°C° 0 mm 4 mps 767 mmHg 45%
    20:00 +19°C° 0 mm 4 mps 767 mmHg 47%
    21:00 +18°C° 0 mm 4 mps 767 mmHg 48%
    22:00 +17°C° 0 mm 3 mps 767 mmHg 51%
    23:00 +16°C° 0 mm 2 mps 767 mmHg 53%

    Tomorrow, 21 April, Sunday

    Time Temperature Precipitation Wind Pressure Humidity
    00:00 +15°C° 0 mm 2 mps 767 mmHg 56%
    01:00 +15°C° 0 mm 2 mps 766 mmHg 59%
    02:00 +14°C° 0 mm 1 mps 766 mmHg 62%
    03:00 +14°C° 0 mm 1 mps 765 mmHg 65%
    04:00 +14°C° 0 mm 1 mps 765 mmHg 64%
    05:00 +14°C° 0 mm 1 mps 765 mmHg 64%
    06:00 +14°C° 0 mm 1 mps 765 mmHg 63%
    07:00 +16°C° 0 mm 1 mps 764 mmHg 56%
    08:00 +19°C° 0 mm 1 mps 764 mmHg 49%
    09:00 +21°C° 0 mm 1 mps 764 mmHg 42%
    10:00 +23°C° 0 mm 1 mps 763 mmHg 37%
    11:00 +24°C° 0 mm 1 mps 763 mmHg 32%
    12:00 +25°C° 0 mm 1 mps 762 mmHg 27%
    13:00 +26°C° 0 mm 1 mps 762 mmHg 26%
    14:00 +26°C° 0 mm 1 mps 761 mmHg 26%
    15:00 +26°C° 0 mm 1 mps 760 mmHg 25%
    16:00 +25°C° 0 mm 1 mps 760 mmHg 29%
    17:00 +24°C° 0 mm 1 mps 760 mmHg 33%
    18:00 +22°C° 0 mm 1 mps 759 mmHg 37%
    19:00 +21°C° 0 mm 1 mps 760 mmHg 41%
    20:00 +19°C° 0 mm 2 mps 760 mmHg 45%
    21:00 +18°C° 0 mm 2 mps 760 mmHg 49%
    22:00 +17°C° 0 mm 2 mps 759 mmHg 51%
    23:00 +16°C° 0 mm 2 mps 759 mmHg 54%

    Day after tomorrow, 22 April, Monday

    Time Temperature Precipitation Wind Pressure Humidity
    00:00 +16°C° 0 mm 2 mps 759 mmHg 57%
    01:00 +15°C° 0 mm 2 mps 758 mmHg 58%
    02:00 +15°C° 0 mm 2 mps 758 mmHg 60%
    03:00 +14°C° 0 mm 2 mps 758 mmHg 61%
    04:00 +14°C° 0 mm 2 mps 757 mmHg 60%
    05:00 +15°C° 0 mm 2 mps 757 mmHg 58%
    06:00 +15°C° 0 mm 2 mps 757 mmHg 57%
    07:00 +17°C° 0 mm 3 mps 756 mmHg 51%
    08:00 +19°C° 0 mm 3 mps 756 mmHg 45%
    09:00 +21°C° 0 mm 3 mps 756 mmHg 39%
    10:00 +22°C° 0 mm 4 mps 755 mmHg 35%
    11:00 +23°C° 0 mm 4 mps 754 mmHg 32%
    12:00 +25°C° 0 mm 4 mps 754 mmHg 28%
    13:00 +25°C° 0 mm 4 mps 753 mmHg 30%
    14:00 +25°C° 0 mm 4 mps 753 mmHg 31%
    15:00 +25°C° 0 mm 5 mps 752 mmHg 32%
    16:00 +23°C° 0 mm 5 mps 752 mmHg 36%
    17:00 +22°C° 0 mm 5 mps 752 mmHg 40%
    18:00 +21°C° 0 mm 5 mps 751 mmHg 44%
    19:00 +19°C° 0 mm 5 mps 751 mmHg 45%
    20:00 +17°C° 0 mm 5 mps 752 mmHg 46%
    21:00 +15°C° 0 mm 5 mps 752 mmHg 47%
    22:00 +15°C° 0 mm 5 mps 751 mmHg 48%
    23:00 +14°C° 0 mm 5 mps 751 mmHg 49%

    23 April, Tuesday

    Time Temperature Precipitation Wind Pressure Humidity
    00:00 +13°C° 0 mm 4 mps 751 mmHg 51%
    01:00 +13°C° 0 mm 4 mps 751 mmHg 51%
    02:00 +12°C° 0 mm 4 mps 750 mmHg 52%
    03:00 +12°C° 0 mm 4 mps 750 mmHg 52%
    04:00 +12°C° 0 mm 4 mps 750 mmHg 55%
    05:00 +11°C° 0 mm 4 mps 750 mmHg 57%
    06:00 +11°C° 0 mm 4 mps 749 mmHg 59%
    07:00 +13°C° 0 mm 4 mps 749 mmHg 57%
    08:00 +15°C° 0 mm 4 mps 749 mmHg 55%
    09:00 +17°C° 0 mm 4 mps 748 mmHg 53%
    10:00 +18°C° 0 mm 4 mps 748 mmHg 51%
    11:00 +19°C° 0 mm 5 mps 747 mmHg 49%
    12:00 +20°C° 0 mm 5 mps 747 mmHg 47%
    13:00 +20°C° 0 mm 5 mps 747 mmHg 47%
    14:00 +20°C° 0 mm 4 mps 746 mmHg 47%
    15:00 +20°C° 0 mm 4 mps 746 mmHg 46%
    16:00 +20°C° 0 mm 4 mps 746 mmHg 50%
    17:00 +19°C° 0 mm 3 mps 746 mmHg 53%
    18:00 +18°C° 0 mm 3 mps 746 mmHg 57%
    19:00 +17°C° 0 mm 3 mps 746 mmHg 62%
    20:00 +16°C° 0 mm 3 mps 746 mmHg 67%
    21:00 +14°C° 0 mm 3 mps 746 mmHg 72%
    22:00 +13°C° 0 mm 3 mps 746 mmHg 75%
    23:00 +14°C° 0 mm 2 mps 746 mmHg 78%

    24 April, Wednesday

    Time Temperature Precipitation Wind Pressure Humidity
    00:00 +13°C° 0 mm 2 mps 746 mmHg 80%
    01:00 +13°C° 0 mm 2 mps 746 mmHg 81%
    02:00 +13°C° 0 mm 2 mps 746 mmHg 81%
    03:00 +13°C° 0 mm 2 mps 746 mmHg 81%
    04:00 +13°C° 0 mm 3 mps 746 mmHg 81%
    05:00 +13°C° 0 mm 3 mps 746 mmHg 80%
    06:00 +14°C° 0 mm 4 mps 746 mmHg 79%
    07:00 +17°C° 0 mm 4 mps 746 mmHg 71%
    08:00 +19°C° 0 mm 5 mps 747 mmHg 63%
    09:00 +21°C° 0 mm 5 mps 747 mmHg 55%
    10:00 +22°C° 0.1 mm 6 mps 747 mmHg 52%
    11:00 +23°C° 0.1 mm 6 mps 747 mmHg 48%
    12:00 +24°C° 0.1 mm 7 mps 747 mmHg 44%
    13:00 +24°C° 0.2 mm 6 mps 747 mmHg 43%
    14:00 +24°C° 0.2 mm 6 mps 748 mmHg 42%
    15:00 +24°C° 0.2 mm 6 mps 748 mmHg 41%
    16:00 +23°C° 0.2 mm 6 mps 748 mmHg 46%
    17:00 +22°C° 0.2 mm 6 mps 748 mmHg 52%
    18:00 +20°C° 0.2 mm 6 mps 749 mmHg 58%
    19:00 +19°C° 1.4 mm 5 mps 750 mmHg 62%
    20:00 +17°C° 1.4 mm 4 mps 751 mmHg 66%
    21:00 +14°C° 1.4 mm 4 mps 752 mmHg 70%
    22:00 +13°C° 0 mm 4 mps 752 mmHg 70%
    23:00 +12°C° 0 mm 3 mps 752 mmHg 69%

    25 April, Thursday

    Time Temperature Precipitation Wind Pressure Humidity
    00:00 +11°C° 0 mm 3 mps 753 mmHg 68%
    01:00 +11°C° 0 mm 3 mps 753 mmHg 71%
    02:00 +11°C° 0 mm 3 mps 753 mmHg 73%
    03:00 +10°C° 0 mm 4 mps 753 mmHg 75%
    04:00 +11°C° 0 mm 4 mps 753 mmHg 74%
    05:00 +12°C° 0 mm 5 mps 753 mmHg 72%
    06:00 +12°C° 0 mm 5 mps 753 mmHg 71%
    07:00 +14°C° 0 mm 5 mps 753 mmHg 64%
    08:00 +15°C° 0 mm 6 mps 753 mmHg 56%
    09:00 +17°C° 0 mm 6 mps 753 mmHg 49%
    10:00 +19°C° 0 mm 6 mps 753 mmHg 46%
    11:00 +20°C° 0 mm 6 mps 753 mmHg 42%
    12:00 +21°C° 0 mm 7 mps 753 mmHg 39%
    13:00 +20°C° 0.1 mm 6 mps 753 mmHg 43%
    14:00 +19°C° 0.1 mm 6 mps 753 mmHg 48%
    15:00 +17°C° 0.1 mm 6 mps 753 mmHg 52%
    16:00 +16°C° 0.4 mm 5 mps 753 mmHg 58%
    17:00 +15°C° 0.4 mm 5 mps 753 mmHg 64%
    18:00 +14°C° 0.4 mm 4 mps 753 mmHg 69%
    19:00 +13°C° 1 mm 3 mps 753 mmHg 73%
    20:00 +12°C° 1 mm 3 mps 754 mmHg 76%
    21:00 +13°C° 1 mm 2 mps 754 mmHg 79%
    22:00 +12°C° 0.7 mm 2 mps 754 mmHg 80%
    23:00 +11°C° 0.7 mm 3 mps 754 mmHg 81%
    Show more